DW2182 Weather Reports


time (UTC)temp
C
wind
direction
speed
KPH
gust
KPH
rain 1hr
cm
rain 24hr
cm
rain mn
cm
humidity
%
barometer
mb
20260903075516 23 0.0 0.0 0.00 0.53 0.00 95 1009.5
20260903074516 23 0.0 0.0 0.00 0.58 0.00 95 1009.5
20260903073515 23 0.0 0.0 0.00 0.64 0.00 95 1009.5
20260903072515 23 0.0 0.0 0.00 0.69 0.00 95 1009.6
20260903071516 23 0.0 0.0 0.00 0.74 0.00 95 1009.7
20260903070517 23 0.0 0.0 0.00 0.81 0.00 95 1009.7
20260903065516 23 0.0 0.0 0.00 0.89 0.00 94 1009.7
20260903064518 23 0.0 0.0 0.00 0.99 0.00 95 1009.8
20260903063516 23 0.0 0.0 0.00 1.07 0.00 95 1009.8
20260903062517 23 0.0 0.0 0.00 1.17 0.00 95 1009.7
20260903061516 23 0.0 0.0 0.00 1.27 0.00 94 1009.6
20260903060518 23 0.0 0.0 0.00 1.37 0.00 94 1009.5
20260903055518 23 0.0 0.0 0.00 1.47 0.00 94 1009.6
20260903054516 23 0.0 0.0 0.00 1.57 0.00 94 1009.6
20260903053517 23 0.0 0.0 0.00 1.68 0.00 94 1009.8
20260903052517 23 0.0 0.0 0.00 1.78 0.00 93 1009.8
20260903051517 23 0.0 0.0 0.00 1.93 0.00 93 1009.8
20260903050517 23 0.0 0.0 0.00 2.11 0.00 92 1009.9
20260903045516 23 0.0 0.0 0.00 2.24 2.18 92 1009.8
20260903044515 24 0.0 0.0 0.00 2.31 2.18 92 1009.8
20260903043516 24 0.0 0.0 0.00 2.44 2.18 92 1009.9
20260903042536 24 0.0 0.0 0.00 2.72 2.18 92 1009.8
20260903041516 24 0.0 0.0 0.00 2.77 2.18 92 1009.9
20260903040516 24 0.0 0.0 0.00 2.77 2.18 91 1009.8
20260903035536 24 0.0 0.0 0.00 2.77 2.18 91 1010.0
20260903034516 25 0.0 0.0 0.00 2.77 2.18 91 1010.0
20260903033515 25 0.0 0.0 0.00 2.77 2.18 90 1010.1
20260903032515 25 0.0 0.0 0.00 2.77 2.18 90 1010.1
20260903031516 25 0.0 0.0 0.00 2.77 2.18 90 1010.0
20260903030538 25 0.0 0.0 0.00 2.77 2.18 89 1010.0
20260903025518 25 0.0 0.0 0.00 2.77 2.18 89 1010.0
20260903024517 25 0.0 1.6 0.00 2.77 2.18 88 1010.0
20260903023518 25 0.0 1.6 0.00 2.77 2.18 88 1009.9
20260903022518 25 0.0 1.6 0.00 2.77 2.18 88 1009.9
20260903021517 25 0.0 0.0 0.00 2.77 2.18 87 1009.8
20260903020517 26 0.0 0.0 0.00 2.77 2.18 86 1009.9
20260903015518 26 0.0 0.0 0.00 2.77 2.18 86 1009.7
20260903014517 26 0.0 0.0 0.00 2.77 2.18 85 1009.6
20260903013517 26 0.0 0.0 0.00 2.77 2.18 84 1009.5
20260903012538 26 0.0 0.0 0.00 2.77 2.18 84 1009.4
20260903011516 26 0.0 0.0 0.00 2.77 2.18 83 1009.4
20260903010517 27 0.0 0.0 0.00 2.77 2.18 82 1009.3
20260903005517 27 0.0 0.0 0.00 2.77 2.18 81 1009.2
20260903004537 27 0.0 1.6 0.00 2.77 2.18 79 1009.3
20260903003517 27 0.0 0.0 0.00 2.77 2.18 78 1009.4
20260903002517 28 0.0 1.6 0.00 2.77 2.18 77 1009.5
20260903001517 28 0.0 3.2 0.00 2.77 2.18 76 1009.4
20260903000537 28 0.0 1.6 0.00 2.77 2.18 75 1009.6
20260902235518 29 45 1.6 3.2 0.00 2.77 2.18 72 1009.6
20260902234517 29 0.0 4.8 0.00 2.77 2.18 71 1009.7
20260902233517 29 68 1.6 3.2 0.00 2.77 2.18 70 1009.5
20260902232517 30 68 3.2 6.4 0.00 2.77 2.18 69 1009.5
20260902231537 30 90 3.2 6.4 0.00 2.77 2.18 67 1009.7
20260902230517 30 68 4.8 14.5 0.00 2.77 2.18 68 1009.7
20260902225517 30 90 6.4 11.3 0.00 2.77 2.18 67 1009.7
20260902224517 30 68 4.8 14.5 0.00 2.77 2.18 66 1009.6
20260902223517 31 90 6.4 14.5 0.00 2.77 2.18 66 1009.7
20260902222517 31 90 3.2 8.0 0.00 2.77 2.18 65 1009.8
20260902221517 31 68 3.2 11.3 0.00 2.77 2.18 64 1009.8
20260902220518 31 90 3.2 9.7 0.00 2.77 2.18 64 1009.8
20260902215517 31 90 4.8 12.9 0.00 2.77 2.18 63 1009.9
20260902214517 31 90 4.8 14.5 0.00 2.77 2.18 61 1010.0
20260902213537 31 90 6.4 16.1 0.00 2.77 2.18 62 1010.0
20260902212517 31 90 6.4 16.1 0.00 2.77 2.18 61 1010.0
20260902211517 32 90 9.7 19.3 0.00 2.77 2.18 60 1010.1
20260902210517 32 90 9.7 24.1 0.00 2.77 2.18 59 1010.3
20260902205517 32 90 9.7 17.7 0.00 2.77 2.18 59 1010.4
20260902204517 32 90 6.4 12.9 0.00 2.77 2.18 61 1010.4
20260902203517 31 90 6.4 14.5 0.00 2.77 2.18 59 1010.4
20260902202517 31 90 4.8 12.9 0.00 2.77 2.18 60 1010.4
20260902201517 31 68 3.2 8.0 0.00 2.77 2.18 63 1010.4
20260902200517 32 90 3.2 6.4 0.00 2.77 2.18 67 1010.6
20260902195517 31 90 6.4 12.9 0.00 2.77 2.18 66 1010.8
20260902194517 31 90 4.8 12.9 0.00 2.77 2.18 69 1010.9
20260902193517 31 90 4.8 12.9 0.00 2.77 2.18 68 1010.9
20260902192517 30 68 3.2 8.0 0.00 2.77 2.18 71 1011.0
20260902191517 31 90 8.0 16.1 0.00 2.77 2.18 70 1011.1
20260902190517 31 90 8.0 16.1 0.00 2.77 2.18 68 1011.2
20260902185517 30 90 4.8 11.3 0.00 2.77 2.18 69 1011.3
20260902184517 29 90 4.8 11.3 0.00 2.77 2.18 71 1011.3
20260902183537 28 45 1.6 4.8 0.00 2.77 2.18 74 1011.4
20260902182517 28 90 4.8 11.3 0.00 2.77 2.18 72 1011.5
20260902181537 29 90 1.6 4.8 0.00 2.77 2.18 72 1011.6
20260902180537 28 90 3.2 9.7 0.00 2.77 2.18 77 1011.6
20260902175517 27 68 1.6 4.8 0.00 2.77 2.18 75 1011.8
20260902174517 27 0.0 3.2 0.00 2.77 2.18 75 1011.9
20260902173517 27 68 1.6 6.4 0.03 2.77 2.18 76 1012.1
20260902172517 27 68 3.2 4.8 0.03 2.77 2.18 79 1012.2
20260902171557 27 45 1.6 4.8 0.03 2.77 2.18 77 1012.1
20260902170517 27 68 1.6 8.0 0.03 2.77 2.18 78 1012.3
20260902165517 26 45 1.6 6.4 0.03 2.77 2.18 77 1012.2
20260902164517 26 158 1.6 4.8 0.03 2.77 2.18 77 1012.2
20260902163517 26 158 3.2 6.4 0.00 2.74 2.16 78 1012.4
20260902162516 25 0 1.6 6.4 0.00 2.74 2.16 82 1012.5
20260902161517 25 0 3.2 6.4 0.00 2.74 2.16 80 1012.7
20260902160517 24 0.0 0.0 0.00 2.74 2.16 82 1012.6
20260902155537 25 0 1.6 6.4 0.03 2.74 2.16 82 1012.7
20260902154537 24 135 3.2 6.4 0.03 2.74 2.16 84 1012.5
20260902153517 24 135 1.6 3.2 0.03 2.74 2.16 84 1012.8
20260902152517 23 0 1.6 6.4 0.03 2.74 2.16 85 1012.7
20260902151517 23 90 3.2 6.4 0.03 2.74 2.16 87 1012.5
20260902150517 22 0.0 0.0 0.03 2.74 2.16 90 1012.1
20260902145517 22 68 1.6 8.0 0.00 2.72 2.13 90 1011.7
20260902144516 22 45 1.6 4.8 0.00 2.72 2.13 91 1011.5
20260902143517 21 0.0 0.0 0.00 2.72 2.13 92 1011.5
20260902142517 21 0.0 0.0 0.03 2.72 2.13 92 1011.6
20260902141537 21 0.0 0.0 0.03 2.72 2.13 93 1011.5
20260902140516 21 0.0 0.0 0.03 2.72 2.13 94 1011.5
20260902135517 20 68 1.6 4.8 0.03 2.72 2.13 94 1011.4
20260902134517 20 68 1.6 4.8 0.03 2.72 2.13 95 1011.4
20260902133537 20 68 1.6 4.8 0.03 2.72 2.13 95 1011.7
20260902132516 20 45 1.6 4.8 0.00 2.69 2.11 96 1011.5
20260902131536 20 45 1.6 4.8 0.00 2.69 2.11 96 1011.5
20260902130516 20 0.0 0.0 0.03 2.69 2.11 97 1011.6
20260902125517 19 0.0 3.2 0.03 2.69 2.11 97 1011.6
20260902124557 19 0.0 0.0 0.03 2.69 2.11 97 1011.6
20260902123516 19 0.0 0.0 0.03 2.69 2.11 97 1011.7
20260902122517 19 0.0 0.0 0.03 2.69 2.11 97 1011.7
20260902121517 18 0.0 0.0 0.05 2.69 2.11 97 1011.3
20260902120517 19 0.0 0.0 0.03 2.67 2.08 97 1011.5
20260902115517 19 0.0 0.0 0.03 2.67 2.08 97 1011.6
20260902114517 19 0.0 0.0 0.05 2.67 2.08 97 1011.5
20260902113537 19 0.0 0.0 0.05 2.67 2.08 97 1011.4
20260902112517 19 0.0 0.0 0.05 2.67 2.08 97 1011.2
20260902111536 19 68 1.6 4.8 0.05 2.64 2.06 96 1011.3
20260902110516 19 68 1.6 4.8 0.05 2.64 2.06 96 1011.4
20260902105517 19 68 1.6 6.4 0.08 2.64 2.06 96 1011.5
20260902104537 19 68 1.6 6.4 0.05 2.62 2.03 96 1011.6
20260902103537 19 0.0 1.6 0.08 2.62 2.03 96 1011.8
20260902102517 19 68 1.6 3.2 0.10 2.62 2.03 96 1012.0
20260902101516 19 68 1.6 3.2 0.08 2.59 2.01 96 1012.4
20260902100516 19 68 1.6 3.2 0.10 2.59 2.01 96 1012.5
20260902095516 19 68 1.6 4.8 0.10 2.57 1.98 96 1012.4
20260902094516 19 68 1.6 3.2 0.13 2.57 1.98 96 1012.3
20260902093516 19 68 1.6 3.2 0.15 2.54 1.96 96 1012.4
20260902092517 19 90 3.2 8.0 0.15 2.51 1.93 96 1012.2
20260902091516 19 0.0 3.2 0.18 2.51 1.93 96 1011.9
20260902090516 19 68 1.6 4.8 0.20 2.49 1.91 96 1011.8
20260902085516 19 68 3.2 6.4 0.23 2.46 1.88 96 1012.2
20260902084516 19 90 3.2 8.0 0.25 2.44 1.85 96 1012.4
20260902083516 19 90 4.8 11.3 0.25 2.39 1.80 96 1012.7
20260902082536 19 90 8.0 12.9 0.28 2.36 1.78 96 1013.1
20260902081516 19 0.0 0.0 0.30 2.34 1.75 96 1012.9
20260902080516 19 0.0 0.0 0.33 2.29 1.70 96 1012.0